Tiempo cada hora Abha

Hoy, 21 Octubre, Miércoles

Tiempo Temperatura Precipitaciones Viento Presión Humedad
00:00 +21°C° 0 mm 3 mps 644 mmHg 27%
01:00 +21°C° 0 mm 3 mps 644 mmHg 26%
02:00 +20°C° 0 mm 3 mps 643 mmHg 24%
03:00 +20°C° 0 mm 3 mps 642 mmHg 23%
04:00 +20°C° 0 mm 3 mps 643 mmHg 22%
05:00 +20°C° 0 mm 3 mps 643 mmHg 21%
06:00 +19°C° 0 mm 3 mps 644 mmHg 20%
07:00 +21°C° 0 mm 3 mps 644 mmHg 18%
08:00 +24°C° 0 mm 2 mps 645 mmHg 15%
09:00 +27°C° 0 mm 2 mps 646 mmHg 13%
10:00 +28°C° 0 mm 2 mps 646 mmHg 13%
11:00 +29°C° 0 mm 2 mps 646 mmHg 13%
12:00 +30°C° 0 mm 3 mps 646 mmHg 13%
13:00 +30°C° 0 mm 3 mps 645 mmHg 15%
14:00 +30°C° 0 mm 4 mps 645 mmHg 18%
15:00 +29°C° 0 mm 4 mps 644 mmHg 20%
16:00 +28°C° 0 mm 3 mps 644 mmHg 25%
17:00 +27°C° 0 mm 3 mps 644 mmHg 30%
18:00 +26°C° 0 mm 2 mps 644 mmHg 35%
19:00 +26°C° 0 mm 2 mps 644 mmHg 36%
20:00 +25°C° 0 mm 2 mps 645 mmHg 37%
21:00 +25°C° 0 mm 2 mps 645 mmHg 38%
22:00 +24°C° 0 mm 2 mps 645 mmHg 36%
23:00 +24°C° 0 mm 2 mps 645 mmHg 33%

Mañana, 22 Octubre, Jueves

Tiempo Temperatura Precipitaciones Viento Presión Humedad
00:00 +24°C° 0 mm 2 mps 645 mmHg 31%
01:00 +23°C° 0 mm 2 mps 644 mmHg 29%
02:00 +23°C° 0 mm 2 mps 644 mmHg 27%
03:00 +21°C° 0 mm 2 mps 643 mmHg 25%
04:00 +21°C° 0 mm 3 mps 644 mmHg 24%
05:00 +21°C° 0 mm 3 mps 644 mmHg 23%
06:00 +21°C° 0 mm 3 mps 644 mmHg 22%
07:00 +24°C° 0 mm 3 mps 645 mmHg 20%
08:00 +26°C° 0 mm 2 mps 646 mmHg 18%
09:00 +28°C° 0 mm 2 mps 646 mmHg 16%
10:00 +29°C° 0 mm 2 mps 646 mmHg 16%
11:00 +30°C° 0 mm 2 mps 646 mmHg 16%
12:00 +31°C° 0 mm 3 mps 646 mmHg 16%
13:00 +31°C° 0 mm 3 mps 646 mmHg 17%
14:00 +31°C° 0 mm 3 mps 645 mmHg 19%
15:00 +32°C° 0 mm 4 mps 644 mmHg 20%
16:00 +30°C° 0 mm 4 mps 644 mmHg 23%
17:00 +29°C° 0 mm 3 mps 644 mmHg 26%
18:00 +28°C° 0 mm 3 mps 644 mmHg 28%
19:00 +27°C° 0 mm 3 mps 644 mmHg 27%
20:00 +26°C° 0 mm 2 mps 645 mmHg 26%
21:00 +26°C° 0 mm 2 mps 645 mmHg 25%
22:00 +25°C° 0 mm 2 mps 645 mmHg 23%
23:00 +24°C° 0 mm 2 mps 644 mmHg 20%

Pasado mañana, 23 Octubre, Viernes

Tiempo Temperatura Precipitaciones Viento Presión Humedad
00:00 +24°C° 0 mm 3 mps 644 mmHg 18%
01:00 +24°C° 0 mm 3 mps 643 mmHg 17%
02:00 +22°C° 0 mm 3 mps 643 mmHg 16%
03:00 +22°C° 0 mm 3 mps 642 mmHg 15%
04:00 +22°C° 0 mm 3 mps 643 mmHg 15%
05:00 +21°C° 0 mm 3 mps 643 mmHg 15%
06:00 +21°C° 0 mm 3 mps 643 mmHg 15%
07:00 +24°C° 0 mm 3 mps 644 mmHg 14%
08:00 +26°C° 0 mm 3 mps 645 mmHg 12%
09:00 +28°C° 0 mm 3 mps 646 mmHg 11%
10:00 +29°C° 0 mm 3 mps 646 mmHg 11%
11:00 +30°C° 0 mm 3 mps 645 mmHg 11%
12:00 +31°C° 0 mm 3 mps 645 mmHg 10%
13:00 +31°C° 0 mm 3 mps 645 mmHg 12%
14:00 +31°C° 0 mm 3 mps 644 mmHg 13%
15:00 +32°C° 0 mm 4 mps 644 mmHg 15%
16:00 +30°C° 0 mm 3 mps 644 mmHg 19%
17:00 +29°C° 0 mm 3 mps 644 mmHg 24%
18:00 +27°C° 0 mm 2 mps 644 mmHg 29%
19:00 +27°C° 0 mm 2 mps 644 mmHg 28%
20:00 +26°C° 0 mm 2 mps 644 mmHg 27%
21:00 +25°C° 0 mm 2 mps 644 mmHg 26%
22:00 +24°C° 0 mm 2 mps 644 mmHg 23%
23:00 +24°C° 0 mm 3 mps 643 mmHg 21%

24 Octubre, Sábado

Tiempo Temperatura Precipitaciones Viento Presión Humedad
00:00 +22°C° 0 mm 3 mps 643 mmHg 19%
01:00 +22°C° 0 mm 3 mps 642 mmHg 18%
02:00 +21°C° 0 mm 3 mps 642 mmHg 18%
03:00 +21°C° 0 mm 3 mps 642 mmHg 17%
04:00 +21°C° 0 mm 3 mps 642 mmHg 18%
05:00 +20°C° 0 mm 3 mps 642 mmHg 19%
06:00 +20°C° 0 mm 3 mps 642 mmHg 20%
07:00 +23°C° 0 mm 2 mps 643 mmHg 18%
08:00 +25°C° 0 mm 2 mps 644 mmHg 17%
09:00 +27°C° 0 mm 2 mps 645 mmHg 15%
10:00 +28°C° 0 mm 2 mps 645 mmHg 15%
11:00 +29°C° 0 mm 2 mps 644 mmHg 14%
12:00 +30°C° 0 mm 3 mps 644 mmHg 13%
13:00 +30°C° 0 mm 3 mps 644 mmHg 17%
14:00 +30°C° 0 mm 3 mps 643 mmHg 20%
15:00 +30°C° 0 mm 4 mps 643 mmHg 23%
16:00 +28°C° 0 mm 3 mps 643 mmHg 28%
17:00 +27°C° 0 mm 2 mps 643 mmHg 33%
18:00 +26°C° 0 mm 2 mps 642 mmHg 38%
19:00 +26°C° 0 mm 2 mps 643 mmHg 39%
20:00 +25°C° 0 mm 2 mps 643 mmHg 39%
21:00 +25°C° 0 mm 2 mps 644 mmHg 40%
22:00 +24°C° 0 mm 1 mps 644 mmHg 38%
23:00 +24°C° 0 mm 1 mps 643 mmHg 35%

25 Octubre, Domingo

Tiempo Temperatura Precipitaciones Viento Presión Humedad
00:00 +23°C° 0 mm 1 mps 643 mmHg 33%
01:00 +23°C° 0 mm 1 mps 643 mmHg 34%
02:00 +23°C° 0 mm 1 mps 642 mmHg 35%
03:00 +20°C° 0 mm 0 mps 642 mmHg 36%
04:00 +20°C° 0 mm 0 mps 642 mmHg 36%
05:00 +19°C° 0 mm 0 mps 642 mmHg 36%
06:00 +19°C° 0 mm 0 mps 642 mmHg 36%
07:00 +23°C° 0 mm 1 mps 643 mmHg 32%
08:00 +25°C° 0 mm 1 mps 644 mmHg 28%
09:00 +27°C° 0 mm 2 mps 645 mmHg 24%
10:00 +27°C° 0 mm 2 mps 644 mmHg 23%
11:00 +28°C° 0 mm 2 mps 644 mmHg 23%
12:00 +29°C° 0 mm 3 mps 644 mmHg 22%
13:00 +29°C° 0 mm 3 mps 643 mmHg 26%
14:00 +29°C° 0 mm 4 mps 643 mmHg 29%
15:00 +29°C° 0 mm 4 mps 642 mmHg 32%
16:00 +28°C° 0 mm 4 mps 642 mmHg 40%
17:00 +27°C° 0 mm 3 mps 642 mmHg 49%
18:00 +25°C° 0 mm 2 mps 642 mmHg 57%
19:00 +25°C° 0.1 mm 1 mps 643 mmHg 60%
20:00 +24°C° 0.1 mm 1 mps 643 mmHg 63%
21:00 +22°C° 0.1 mm 0 mps 643 mmHg 65%
22:00 +22°C° 0 mm 0 mps 643 mmHg 64%
23:00 +24°C° 0 mm 1 mps 643 mmHg 63%

26 Octubre, Lunes

Tiempo Temperatura Precipitaciones Viento Presión Humedad
00:00 +24°C° 0 mm 1 mps 643 mmHg 62%
01:00 +24°C° 0 mm 1 mps 643 mmHg 61%
02:00 +21°C° 0 mm 0 mps 643 mmHg 61%
03:00 +21°C° 0 mm 0 mps 642 mmHg 61%
04:00 +20°C° 0 mm 0 mps 642 mmHg 62%
05:00 +20°C° 0 mm 0 mps 643 mmHg 62%
06:00 +19°C° 0 mm 0 mps 643 mmHg 63%
07:00 +22°C° 0 mm 1 mps 643 mmHg 58%
08:00 +24°C° 0 mm 1 mps 644 mmHg 53%
09:00 +25°C° 0 mm 2 mps 645 mmHg 48%
10:00 +26°C° 0 mm 2 mps 645 mmHg 44%
11:00 +27°C° 0 mm 2 mps 645 mmHg 40%
12:00 +28°C° 0 mm 3 mps 645 mmHg 36%
13:00 +28°C° 0.2 mm 3 mps 644 mmHg 38%
14:00 +28°C° 0.2 mm 3 mps 644 mmHg 41%
15:00 +28°C° 0.2 mm 3 mps 643 mmHg 43%
16:00 +27°C° 0.2 mm 2 mps 643 mmHg 47%
17:00 +26°C° 0.2 mm 2 mps 643 mmHg 51%
18:00 +25°C° 0.2 mm 1 mps 643 mmHg 55%
19:00 +24°C° 0 mm 1 mps 643 mmHg 53%
20:00 +24°C° 0 mm 1 mps 643 mmHg 50%
21:00 +23°C° 0 mm 2 mps 644 mmHg 48%
22:00 +23°C° 0 mm 2 mps 644 mmHg 44%
23:00 +23°C° 0 mm 1 mps 643 mmHg 40%

27 Octubre, Martes

Tiempo Temperatura Precipitaciones Viento Presión Humedad
00:00 +23°C° 0 mm 1 mps 643 mmHg 36%
01:00 +22°C° 0 mm 1 mps 643 mmHg 34%
02:00 +21°C° 0 mm 2 mps 643 mmHg 32%
03:00 +20°C° 0 mm 2 mps 643 mmHg 30%
04:00 +20°C° 0 mm 2 mps 643 mmHg 31%
05:00 +20°C° 0 mm 2 mps 643 mmHg 31%
06:00 +19°C° 0 mm 2 mps 643 mmHg 32%
07:00 +22°C° 0 mm 1 mps 644 mmHg 30%
08:00 +23°C° 0 mm 1 mps 644 mmHg 28%
09:00 +25°C° 0 mm 1 mps 645 mmHg 26%
10:00 +26°C° 0 mm 2 mps 645 mmHg 24%
11:00 +27°C° 0 mm 2 mps 645 mmHg 22%
12:00 +28°C° 0 mm 2 mps 645 mmHg 20%
13:00 +28°C° 0 mm 3 mps 645 mmHg 24%
14:00 +28°C° 0 mm 3 mps 644 mmHg 28%
15:00 +28°C° 0 mm 4 mps 643 mmHg 32%
16:00 +27°C° 0.1 mm 3 mps 643 mmHg 40%
17:00 +26°C° 0.1 mm 2 mps 643 mmHg 48%
18:00 +24°C° 0.1 mm 2 mps 643 mmHg 56%
19:00 +24°C° 0.1 mm 2 mps 643 mmHg 54%
20:00 +23°C° 0.1 mm 2 mps 644 mmHg 51%
21:00 +23°C° 0.1 mm 2 mps 644 mmHg 48%
22:00 +23°C° 0 mm 2 mps 644 mmHg 44%
23:00 +21°C° 0 mm 2 mps 644 mmHg 40%
Mostrar más

Necesitamos Su Consentimiento

Meteoprog y nuestros Proveedores de Servicios pueden almacenar y acceder a sus datos personales como cookies, identificadores de dispositivo u otras tecnologías similares de su dispositivo y procesar dichos datos para personalizar contenido y anuncios, además de ofrecer funciones de redes sociales y analizar el tráfico.

  • Almacenar y/o acceder a información en su dispositivo

    Se puede almacenar o acceder a cookies, identificadores de dispositivo u otra información de su dispositivo para los fines anteriormente indicados.

  • Anuncios y contenido personalizados, medición de anuncios y contenido, percepciones del público, y desarrollo de productos

    Los anuncios y el contenido pueden personalizarse en base a su perfil. Se pueden añadir más datos para personalizar mejor los anuncios y contenidos. Se puede medir el rendimiento de los anuncios y contenidos. Se puede obtener la percepción sobre el público que ha visto los anuncios y contenidos. Dichos datos pueden usarse para desarrollar o mejorar la experiencia del usuario, sistemas y software.

Al hacer clic en ‘Estoy De Acuerdo’ usted permitirá el uso de las cookies, identificadores de dispositivo, balizas web u otras tecnologías similares indicadas. Su configuración puede cambiarse desde el navegador de su dispositivo.

Para ciertos fines, los intereses legítimos pueden ser considerados por encima del consentimiento. Puede leer más sobre ello en nuestra Política de Privacidad y Cookies.